Terug naar catalogus

MSU ALTAIR

ActiefWetenschapSSO
NORAD 61779·PAYLOAD·🇷🇺 Russia

Gelanceerd Nov 4, 2024 vanaf Vostochny Cosmodrome

Loading…

Volgende Passages (komende 24 uur)

TLE

VersSource: Space-Track

Epoch: Sep 14, 2026, 14:02 UTC

1 61779U 24199AW  26257.58475249  .00008523  00000-0  22579-3 0  9997
2 61779  97.2873 126.3752 0011847 353.2513   6.8571 15.38527059150858

Volg MSU ALTAIR in realtime met AllMySat

Download on the App Store